Location: Unspecified
(0.0000°N, 0.0000°E)
Time: 20:47:22
(UTC+02:00)

Daily predictions for brighter satellites

Satellite Brightness Start Highest point End
(mag) Time Altitude Azimuth Time Altitude Azimuth Time Altitude Azimuth
ATLAS 2AS CENTAUR R/B 2.9 20:21:47 10° S 20:28:38 58° ESE 20:36:05 10° NE
ATLAS V CENTAUR R/B 3.2 20:27:45 10° SSW 20:29:05 16° SSE 20:30:32 10° ESE
Nadezhda 4 Rocket 4.0 20:28:05 10° N 20:34:17 73° E 20:40:26 10° S
Cosmos 1602 Rocket 4.4 20:30:52 10° SSE 20:34:44 29° E 20:38:37 10° NNE
Cosmos 1707 4.2 20:32:07 10° SE 20:34:48 18° E 20:37:29 10° NE
NOAA 12 4.1 20:33:47 10° SSE 20:39:00 64° ENE 20:44:13 10° N
Cosmos 1844 Rocket 3.5 20:36:28 10° SSE 20:41:13 27° ESE 20:45:55 10° NE
ARIANE 5 R/B 1.8 20:41:07 10° WSW 20:43:09 19° S 20:44:10 13° SE
Cosmos 1606 Rocket 3.7 20:40:45 10° N 20:45:00 51° E 20:49:15 10° SSE
Cosmos 2279 Rocket 4.0 20:40:25 10° S 20:46:35 69° E 20:52:42 10° N
ARIANE 5 R/B 3.5 20:44:25 10° WNW 20:48:00 67° N 21:08:50 10° E
Delta 2 Rocket 2.9 20:46:03 10° SW 20:49:41 58° SE 20:53:02 10° ENE
GPS 2-14 Rocket1 3.8 20:49:52 10° W 20:53:32 40° NNW 20:57:08 10° NE
CZ-4 R/B 3.4 20:51:06 10° SSW 20:54:32 27° WSW 20:57:54 10° NW
Cosmos 2026 Rocket 4.4 20:50:00 10° NNE 20:55:37 38° E 21:01:20 10° SSE
SYLDA PLATFORM 3.9 20:49:10 10° W 20:56:00 80° N 20:58:56 14° E
CZ-3C R/B 4.0 20:50:19 10° SSW 20:56:16 32° SE 21:21:55 10° E
BLOCK DM-SL 4.4 20:51:14 10° W 20:57:09 62° S 21:07:02 16° E
Cosmos 1269 Rocket 4.5 20:53:37 10° S 20:58:31 38° ESE 21:03:23 10° NE
Cosmos 1092 Rocket 3.9 20:56:07 10° N 21:02:18 84° E 21:08:27 10° S
Landsat 4 4.4 21:01:03 10° N 21:04:47 57° WNW 21:08:32 10° SSW
NOSS 3-4 (A) 4.2 21:01:55 10° S 21:07:11 27° ESE 21:12:17 10° ENE
NOSS 3-4 (C) 4.2 21:02:05 10° S 21:07:18 27° ESE 21:12:19 10° ENE
Cosmos 2228 3.0 21:05:48 10° N 21:10:09 66° E 21:13:50 14° SSE
ARIANE 5 R/B 3.3 20:29:54 10° W 21:10:54 59° S 21:14:28 25° ESE
Cosmos 1758 4.3 21:08:26 10° NNE 21:11:50 27° E 21:11:53 27° E
Cosmos 1805 3.1 21:08:36 10° N 21:12:28 73° E 21:15:17 18° S
H-2A R/B 3.5 21:09:38 10° S 21:13:27 52° W 21:17:11 10° NNW
SL-16 R/B 2.8 21:08:48 10° NNW 21:14:21 57° WSW 21:19:56 10° S
Cosmos 1825 Rocket 4.4 21:15:53 29° E 21:15:53 29° E 21:19:43 10° NNE
Aureole 1 Rocket 3.3 21:13:58 10° SSW 21:16:54 43° WNW 21:19:43 10° N
SJ-6B 4.0 21:22:03 25° ENE 21:22:03 25° ENE 21:24:38 10° NNE
Cosmos 1766 4.4 21:19:23 10° NNW 21:23:06 43° W 21:26:50 10° SSW
Timation 1 Rocket 4.2 21:17:39 10° S 21:23:36 74° ESE 21:29:31 10° NNE
Cosmos 2058 Rocket 2.9 21:20:18 10° N 21:24:39 89° WSW 21:27:34 21° S
Cosmos 2285 Rocket 3.9 21:18:34 10° S 21:24:58 83° ESE 21:31:17 10° NNE
Envisat 3.2 21:23:55 33° SE 21:25:49 49° ENE 21:30:42 10° N
Cosmos 1953 3.6 21:24:57 10° NNE 21:27:18 26° NE 21:27:18 26° NE
Cosmos 1400 Rocket 3.4 21:25:24 10° SSW 21:29:27 59° W 21:33:26 10° N
Meteor 2-11 Rocket 4.3 21:24:14 10° S 21:30:19 84° E 21:36:22 10° N
SWIFT 3.7 21:27:53 10° NW 21:31:31 27° NNE 21:32:28 25° NE
CZ-2D R/B 3.5 21:31:59 50° ENE 21:31:59 50° ENE 21:35:32 10° N
Thor Agena Rocket 3.6 21:29:45 10° N 21:34:46 78° WNW 21:39:49 10° SSW
Meteor 2-5 Rocket 3.7 21:30:23 10° S 21:36:17 71° E 21:42:11 10° NNE
Ariane V96 H10-3 4.4 21:34:29 10° WSW 21:36:41 18° SSW 21:36:41 18° SSW
Delta 128 4.3 21:32:51 10° NW 21:39:25 70° NNE 21:41:02 48° E
BLOCK DM-SL R/B 2.3 21:35:24 10° W 21:39:45 56° W 21:39:45 56° W
FREGAT/IRIS 3.7 21:40:58 41° W 21:40:58 41° W 21:43:34 10° NNW
ARIANE 5 DEB (SYLDA) 3.7 21:46:01 10° WNW 21:47:12 24° WNW 21:47:12 24° WNW
OAO 2 Rocket 3.3 21:44:31 10° NW 21:49:48 77° NE 21:50:17 70° E
Cosmos 1655 Rocket 3.8 21:44:01 10° N 21:50:12 81° E 21:52:33 41° SSE
Cosmos 1603 3.6 21:44:44 10° N 21:50:28 78° ENE 21:51:29 60° SE
Cosmos 1470 4.1 21:47:06 10° N 21:49:11 29° NNE 21:49:11 29° NNE
Ariane H10 4.2 21:42:08 10° W 21:54:34 47° NNW 21:55:41 37° NNE
Cosmos 1733 4.1 21:53:09 10° NNW 21:56:02 46° NW 21:56:02 46° NW
CZ-3A R/B 3.5 21:40:59 10° WNW 21:57:14 42° SW 21:58:22 37° S
ASTRO E2 4.0 21:57:12 10° NW 21:59:46 36° NNW 21:59:46 36° NNW
GPS 2-17 Rocket1 3.5 21:57:06 10° WNW 22:01:14 58° NNW 22:01:14 58° NNW
Ariane H10+ 3.0 21:54:54 10° W 22:02:23 67° WSW 22:02:23 67° WSW
GPS 2-15 Rocket1 4.2 22:02:10 10° NW 22:05:53 38° N 22:05:53 38° N
Ariane H10+ 4.1 22:23:41 10° W 22:24:24 13° W 22:24:24 13° W
Cosmos 1943 4.0 22:23:38 10° NNW 22:27:29 46° NNW 22:27:29 46° NNW
ARIANE 5 R/B 4.2 22:23:18 10° W 22:28:09 39° WSW 22:28:09 39° WSW
Longmarch 3A Rocket 4.5 22:38:04 10° WNW 22:56:58 40° SW 22:56:58 40° SW
Ariane H10 4.2 22:47:35 10° W 23:09:43 58° WNW 23:09:43 58° WNW
ATLAS CENTAUR Rocket 4.5 13:13:22 10° WNW 23:24:12 85° S 23:24:12 85° S
